QPF
0.11 0.12 0.13 0.12 0.11 0.12 0.13 0.13 0.13 0.12 0.10 0.08 0.06 0.05 0.05 0.03 0.02 0.02 0.03 0.02 0.04 0.06 0.10 0.13 0.15 0.15 0.13 0.10 0.08 0.07 0.05 0.04 0.02 0.02 0.02 0.01 0.01 0.00 0.00 0.00 0.00 0.00 0.00
0.12 0.14 0.12 0.10 0.10 0.10 0.10 0.10 0.09 0.09 0.09 0.08 0.06 0.05 0.04 0.04 0.03 0.03 0.03 0.03 0.02 0.03 0.07 0.12 0.17 0.17 0.16 0.14 0.10 0.09 0.08 0.07 0.06 0.03 0.02 0.02 0.02 0.01 0.00 0.00 0.00 0.00 0.00
0.10 0.11 0.09 0.08 0.06 0.06 0.07 0.08 0.08 0.07 0.06 0.06 0.05 0.04 0.04 0.03 0.03 0.04 0.04 0.03 0.02 0.02 0.04 0.08 0.15 0.17 0.17 0.17 0.17 0.13 0.11 0.10 0.09 0.07 0.04 0.03 0.02 0.02 0.01 0.00 0.00 0.00 0.00
0.07 0.07 0.07 0.05 0.04 0.05 0.06 0.07 0.06 0.05 0.04 0.04 0.04 0.03 0.02 0.02 0.02 0.04 0.03 0.03 0.03 0.03 0.05 0.07 0.12 0.16 0.18 0.20 0.24 0.21 0.17 0.13 0.11 0.09 0.07 0.05 0.04 0.03 0.01 0.01 0.01 0.00 0.00
0.04 0.04 0.03 0.03 0.04 0.03 0.04 0.03 0.03 0.02 0.02 0.02 0.02 0.03 0.02 0.01 0.02 0.02 0.02 0.03 0.03 0.03 0.05 0.07 0.08 0.12 0.16 0.22 0.29 0.30 0.28 0.21 0.16 0.13 0.09 0.07 0.06 0.04 0.03 0.02 0.01 0.01 0.00
0.03 0.02 0.02 0.03 0.03 0.02 0.03 0.03 0.03 0.02 0.02 0.01 0.00 0.01 0.01 0.01 0.01 0.01 0.01 0.02 0.02 0.02 0.03 0.05 0.08 0.07 0.09 0.16 0.26 0.30 0.32 0.30 0.26 0.22 0.16 0.11 0.08 0.06 0.04 0.04 0.03 0.01 0.00
0.02 0.02 0.02 0.03 0.02 0.02 0.02 0.01 0.01 0.01 0.01 0.00 0.00 0.01 0.01 0.00 0.00 0.01 0.01 0.01 0.02 0.03 0.04 0.04 0.05 0.06 0.06 0.07 0.09 0.15 0.23 0.28 0.27 0.25 0.21 0.17 0.14 0.11 0.08 0.05 0.04 0.03 0.02
0.02 0.02 0.02 0.01 0.01 0.02 0.02 0.01 0.01 0.01 0.01 0.01 0.01 0.01 0.01 0.00 0.00 0.00 0.00 0.00 0.02 0.03 0.02 0.01 0.02 0.04 0.06 0.10 0.09 0.09 0.14 0.20 0.24 0.25 0.23 0.21 0.17 0.15 0.13 0.08 0.05 0.03 0.02
0.01 0.01 0.02 0.02 0.01 0.01 0.01 0.01 0.01 0.01 0.01 0.01 0.01 0.01 0.01 0.01 0.00 0.00 0.00 0.00 0.01 0.02 0.02 0.03 0.03 0.04 0.05 0.05 0.07 0.07 0.09 0.12 0.17 0.22 0.24 0.22 0.19 0.16 0.14 0.12 0.10 0.06 0.04
0.01 0.01 0.01 0.01 0.01 0.01 0.01 0.00 0.00 0.01 0.01 0.01 0.01 0.01 0.01 0.01 0.01 0.00 0.00 0.00 0.00 0.01 0.01 0.01 0.02 0.04 0.05 0.05 0.06 0.05 0.04 0.05 0.08 0.14 0.18 0.21 0.20 0.17 0.14 0.15 0.14 0.12 0.08
0.01 0.01 0.01 0.01 0.01 0.00 0.00 0.01 0.00 0.00 0.00 0.01 0.01 0.01 0.01 0.01 0.01 0.01 0.01 0.00 0.00 0.00 0.00 0.01 0.02 0.02 0.03 0.04 0.06 0.05 0.03 0.03 0.04 0.06 0.09 0.12 0.16 0.16 0.15 0.14 0.16 0.16 0.14
0.01 0.01 0.00 0.00 0.00 0.00 0.01 0.01 0.00 0.00 0.00 0.00 0.01 0.00 0.00 0.00 0.01 0.01 0.01 0.01 0.00 0.00 0.00 0.00 0.01 0.01 0.01 0.01 0.01 0.01 0.01 0.02 0.03 0.03 0.04 0.06 0.10 0.13 0.17 0.19 0.18 0.19 0.19
0.00 0.00 0.00 0.00 0.01 0.01 0.01 0.00 0.00 0.00 0.00 0.01 0.00 0.00 0.00 0.00 0.00 0.00 0.00 0.00 0.00 0.00 0.00 0.00 0.00 0.00 0.01 0.02 0.02 0.01 0.01 0.01 0.02 0.02 0.03 0.03 0.05 0.08 0.10 0.13 0.17 0.19 0.20
0.01 0.00 0.00 0.00 0.01 0.01 0.00 0.00 0.00 0.00 0.00 0.00 0.00 0.00 0.00 0.00 0.00 0.00 0.00 0.00 0.00 0.00 0.00 0.00 0.00 0.00 0.01 0.01 0.02 0.01 0.01 0.01 0.02 0.02 0.02 0.02 0.03 0.04 0.05 0.06 0.08 0.10 0.13
0.00 0.00 0.00 0.00 0.00 0.00 0.00 0.00 0.00 0.00 0.00 0.00 0.00 0.00 0.00 0.00 0.00 0.00 0.00 0.01 0.01 0.01 0.00 0.00 0.00 0.00 0.00 0.00 0.00 0.01 0.02 0.01 0.01 0.01 0.01 0.02 0.02 0.02 0.02 0.03 0.05 0.06 0.06
0.00 0.00 0.00 0.00 0.00 0.00 0.00 0.00 0.00 0.00 0.00 0.00 0.00 0.00 0.00 0.00 0.00 0.00 0.00 0.00 0.01 0.01 0.01 0.00 0.00 0.00 0.00 0.00 0.00 0.00 0.01 0.01 0.01 0.01 0.01 0.01 0.01 0.01 0.01 0.01 0.02 0.04 0.05
0.00 0.00 0.00 0.00 0.00 0.00 0.00 0.00 0.00 0.00 0.00 0.00 0.00 0.00 0.00 0.00 0.00 0.00 0.00 0.00 0.00 0.01 0.01 0.00 0.00 0.00 0.00 0.00 0.00 0.00 0.00 0.00 0.00 0.00 0.00 0.00 0.01 0.01 0.01 0.01 0.01 0.01 0.03
0.00 0.00 0.00 0.00 0.00 0.00 0.00 0.00 0.00 0.00 0.00 0.00 0.00 0.00 0.00 0.00 0.00 0.00 0.00 0.00 0.00 0.01 0.01 0.01 0.00 0.00 0.01 0.01 0.01 0.00 0.00 0.00 0.00 0.00 0.00 0.00 0.00 0.00 0.00 0.00 0.01 0.01 0.01
0.00 0.00 0.00 0.00 0.00 0.00 0.00 0.00 0.00 0.00 0.00 0.00 0.00 0.00 0.00 0.00 0.00 0.00 0.01 0.01 0.01 0.00 0.01 0.01 0.00 0.01 0.01 0.01 0.01 0.00 0.00 0.00 0.00 0.00 0.00 0.00 0.00 0.00 0.00 0.00 0.00 0.01 0.01
0.00 0.00 0.00 0.00 0.00 0.00 0.00 0.00 0.00 0.00 0.00 0.00 0.00 0.00 0.00 0.00 0.00 0.01 0.01 0.01 0.01 0.01 0.01 0.01 0.00 0.00 0.01 0.01 0.01 0.00 0.00 0.01 0.00 0.00 0.00 0.00 0.00 0.00 0.00 0.00 0.00 0.00 0.01
0.00 0.00 0.00 0.00 0.00 0.00 0.00 0.00 0.00 0.00 0.00 0.00 0.00 0.00 0.00 0.00 0.00 0.00 0.00 0.00 0.01 0.01 0.01 0.01 0.01 0.00 0.00 0.01 0.01 0.01 0.01 0.01 0.01 0.00 0.00 0.01 0.01 0.02 0.01 0.00 0.00 0.00 0.00
0.00 0.00 0.00 0.00 0.00 0.00 0.00 0.00 0.00 0.00 0.00 0.00 0.00 0.00 0.00 0.00 0.00 0.00 0.00 0.00 0.00 0.01 0.01 0.02 0.01 0.01 0.01 0.01 0.02 0.01 0.01 0.01 0.01 0.01 0.01 0.01 0.02 0.02 0.02 0.01 0.01 0.00 0.00
0.01 0.01 0.01 0.00 0.00 0.00 0.00 0.00 0.00 0.00 0.00 0.00 0.00 0.00 0.00 0.00 0.00 0.00 0.00 0.00 0.00 0.00 0.00 0.01 0.01 0.01 0.01 0.02 0.03 0.02 0.02 0.03 0.02 0.02 0.02 0.01 0.02 0.02 0.01 0.01 0.01 0.00 0.00
0.01 0.01 0.01 0.00 0.00 0.00 0.00 0.00 0.00 0.00 0.00 0.00 0.00 0.00 0.00 0.00 0.00 0.01 0.01 0.01 0.00 0.01 0.00 0.01 0.01 0.01 0.02 0.03 0.04 0.03 0.03 0.03 0.02 0.02 0.02 0.02 0.01 0.02 0.01 0.01 0.01 0.00 0.00
0.01 0.01 0.01 0.01 0.01 0.01 0.01 0.00 0.00 0.00 0.00 0.00 0.01 0.01 0.00 0.00 0.00 0.00 0.00 0.01 0.01 0.01 0.00 0.00 0.00 0.01 0.00 0.01 0.01 0.02 0.02 0.02 0.02 0.01 0.02 0.02 0.01 0.01 0.01 0.01 0.01 0.00 0.00
0.01 0.01 0.01 0.01 0.01 0.01 0.01 0.00 0.00 0.00 0.00 0.01 0.01 0.01 0.01 0.00 0.00 0.00 0.00 0.01 0.01 0.01 0.02 0.01 0.01 0.00 0.00 0.00 0.00 0.00 0.02 0.03 0.03 0.02 0.02 0.03 0.02 0.02 0.02 0.01 0.01 0.01 0.01
MSLP
1018.50 1018.75 1018.93 1019.06 1019.15 1019.23 1019.32 1019.42 1019.51 1019.57 1019.57 1019.50 1019.35 1019.14 1018.91 1018.72 1018.60 1018.61 1018.74 1019.00 1019.33 1019.70 1020.06 1020.36 1020.57 1020.71 1020.78 1020.83 1020.87 1020.94 1021.06 1021.23 1021.44 1021.67 1021.90 1022.11 1022.31 1022.49 1022.66 1022.83 1023.02 1023.22 1023.45
1018.51 1018.75 1018.92 1019.02 1019.10 1019.17 1019.25 1019.35 1019.45 1019.53 1019.57 1019.53 1019.42 1019.25 1019.04 1018.85 1018.71 1018.68 1018.76 1018.95 1019.23 1019.55 1019.88 1020.16 1020.37 1020.51 1020.59 1020.64 1020.69 1020.76 1020.89 1021.06 1021.28 1021.52 1021.78 1022.02 1022.24 1022.44 1022.63 1022.81 1022.99 1023.19 1023.41
1018.52 1018.75 1018.90 1019.00 1019.06 1019.12 1019.20 1019.30 1019.42 1019.52 1019.59 1019.60 1019.53 1019.39 1019.20 1019.01 1018.86 1018.78 1018.81 1018.94 1019.15 1019.41 1019.68 1019.92 1020.11 1020.23 1020.30 1020.34 1020.39 1020.47 1020.60 1020.79 1021.02 1021.29 1021.58 1021.85 1022.11 1022.34 1022.55 1022.74 1022.94 1023.13 1023.35
1018.50 1018.72 1018.87 1018.97 1019.03 1019.10 1019.18 1019.29 1019.41 1019.54 1019.63 1019.67 1019.64 1019.53 1019.37 1019.19 1019.03 1018.92 1018.90 1018.96 1019.10 1019.28 1019.47 1019.64 1019.77 1019.85 1019.90 1019.92 1019.96 1020.04 1020.17 1020.37 1020.64 1020.94 1021.26 1021.57 1021.87 1022.14 1022.38 1022.60 1022.81 1023.02 1023.24
1018.44 1018.66 1018.83 1018.94 1019.02 1019.09 1019.19 1019.31 1019.44 1019.58 1019.69 1019.75 1019.74 1019.66 1019.53 1019.36 1019.20 1019.07 1019.00 1018.99 1019.05 1019.14 1019.24 1019.32 1019.37 1019.39 1019.38 1019.37 1019.39 1019.46 1019.60 1019.82 1020.10 1020.44 1020.79 1021.15 1021.49 1021.79 1022.07 1022.32 1022.56 1022.80 1023.04
1018.37 1018.60 1018.78 1018.92 1019.02 1019.13 1019.24 1019.36 1019.50 1019.64 1019.76 1019.83 1019.83 1019.78 1019.66 1019.51 1019.35 1019.21 1019.10 1019.03 1019.00 1018.99 1018.98 1018.96 1018.91 1018.85 1018.77 1018.72 1018.71 1018.77 1018.91 1019.14 1019.45 1019.81 1020.19 1020.58 1020.95 1021.29 1021.60 1021.88 1022.16 1022.43 1022.70
1018.31 1018.55 1018.75 1018.92 1019.06 1019.19 1019.32 1019.46 1019.60 1019.73 1019.84 1019.91 1019.92 1019.87 1019.77 1019.64 1019.49 1019.33 1019.19 1019.06 1018.95 1018.84 1018.73 1018.59 1018.44 1018.28 1018.14 1018.03 1017.99 1018.04 1018.18 1018.41 1018.73 1019.10 1019.49 1019.89 1020.28 1020.63 1020.97 1021.28 1021.58 1021.89 1022.21
1018.28 1018.53 1018.75 1018.96 1019.14 1019.30 1019.45 1019.60 1019.73 1019.85 1019.94 1019.99 1020.00 1019.96 1019.87 1019.75 1019.60 1019.44 1019.27 1019.10 1018.91 1018.71 1018.50 1018.26 1018.01 1017.76 1017.55 1017.40 1017.32 1017.35 1017.48 1017.71 1018.02 1018.38 1018.77 1019.16 1019.53 1019.89 1020.22 1020.54 1020.87 1021.21 1021.57
1018.30 1018.55 1018.80 1019.03 1019.24 1019.43 1019.61 1019.76 1019.89 1019.99 1020.06 1020.09 1020.08 1020.03 1019.95 1019.84 1019.70 1019.53 1019.35 1019.14 1018.89 1018.62 1018.32 1017.99 1017.66 1017.35 1017.08 1016.89 1016.79 1016.80 1016.92 1017.13 1017.42 1017.76 1018.11 1018.46 1018.80 1019.12 1019.43 1019.75 1020.08 1020.43 1020.82
1018.37 1018.61 1018.86 1019.11 1019.35 1019.57 1019.77 1019.93 1020.05 1020.13 1020.18 1020.19 1020.16 1020.11 1020.02 1019.92 1019.78 1019.62 1019.42 1019.19 1018.91 1018.58 1018.22 1017.83 1017.44 1017.08 1016.78 1016.56 1016.45 1016.44 1016.55 1016.74 1017.00 1017.29 1017.59 1017.89 1018.17 1018.44 1018.70 1018.98 1019.30 1019.64 1020.03
1018.44 1018.67 1018.93 1019.19 1019.45 1019.69 1019.90 1020.07 1020.19 1020.26 1020.29 1020.27 1020.23 1020.17 1020.09 1019.98 1019.86 1019.70 1019.50 1019.25 1018.95 1018.59 1018.19 1017.77 1017.35 1016.97 1016.66 1016.43 1016.31 1016.30 1016.38 1016.55 1016.77 1017.01 1017.25 1017.48 1017.69 1017.90 1018.11 1018.34 1018.62 1018.94 1019.31
1018.50 1018.72 1018.97 1019.24 1019.51 1019.77 1019.99 1020.16 1020.28 1020.34 1020.36 1020.33 1020.28 1020.21 1020.12 1020.03 1019.91 1019.75 1019.56 1019.31 1019.00 1018.63 1018.22 1017.79 1017.37 1016.99 1016.68 1016.45 1016.33 1016.32 1016.39 1016.53 1016.70 1016.89 1017.07 1017.24 1017.39 1017.53 1017.69 1017.87 1018.10 1018.39 1018.72
1018.53 1018.73 1018.98 1019.24 1019.52 1019.78 1020.01 1020.19 1020.30 1020.36 1020.37 1020.34 1020.28 1020.20 1020.12 1020.03 1019.91 1019.77 1019.58 1019.33 1019.03 1018.67 1018.27 1017.85 1017.44 1017.07 1016.77 1016.56 1016.45 1016.43 1016.49 1016.60 1016.74 1016.88 1017.02 1017.13 1017.23 1017.33 1017.44 1017.58 1017.77 1018.01 1018.30
1018.52 1018.71 1018.95 1019.21 1019.48 1019.74 1019.97 1020.14 1020.26 1020.31 1020.31 1020.28 1020.22 1020.14 1020.06 1019.97 1019.86 1019.72 1019.54 1019.31 1019.01 1018.67 1018.29 1017.89 1017.50 1017.16 1016.88 1016.68 1016.57 1016.54 1016.58 1016.67 1016.78 1016.89 1016.98 1017.07 1017.14 1017.21 1017.30 1017.42 1017.58 1017.79 1018.03
1018.47 1018.67 1018.90 1019.15 1019.41 1019.66 1019.87 1020.04 1020.14 1020.19 1020.19 1020.15 1020.09 1020.02 1019.93 1019.84 1019.74 1019.60 1019.43 1019.20 1018.93 1018.61 1018.25 1017.87 1017.51 1017.19 1016.92 1016.73 1016.62 1016.57 1016.59 1016.65 1016.73 1016.81 1016.89 1016.96 1017.03 1017.10 1017.19 1017.31 1017.46 1017.64 1017.84
1018.41 1018.61 1018.84 1019.08 1019.32 1019.55 1019.74 1019.89 1019.98 1020.02 1020.01 1019.97 1019.90 1019.83 1019.74 1019.65 1019.55 1019.41 1019.24 1019.03 1018.77 1018.47 1018.13 1017.78 1017.45 1017.14 1016.88 1016.68 1016.56 1016.49 1016.48 1016.50 1016.55 1016.61 1016.67 1016.73 1016.81 1016.89 1017.00 1017.14 1017.30 1017.47 1017.65
1018.34 1018.56 1018.78 1019.01 1019.22 1019.42 1019.58 1019.70 1019.77 1019.79 1019.78 1019.73 1019.66 1019.58 1019.50 1019.40 1019.30 1019.16 1019.00 1018.80 1018.55 1018.27 1017.96 1017.63 1017.31 1017.01 1016.75 1016.54 1016.39 1016.28 1016.23 1016.21 1016.21 1016.24 1016.28 1016.34 1016.42 1016.52 1016.65 1016.81 1016.99 1017.18 1017.36
1018.26 1018.49 1018.71 1018.92 1019.11 1019.27 1019.40 1019.49 1019.53 1019.53 1019.50 1019.45 1019.37 1019.29 1019.21 1019.11 1019.00 1018.87 1018.72 1018.52 1018.30 1018.04 1017.75 1017.44 1017.14 1016.85 1016.58 1016.35 1016.16 1016.01 1015.90 1015.82 1015.77 1015.75 1015.75 1015.79 1015.86 1015.97 1016.11 1016.29 1016.49 1016.69 1016.88
1018.12 1018.37 1018.59 1018.78 1018.94 1019.07 1019.17 1019.22 1019.24 1019.22 1019.18 1019.12 1019.05 1018.97 1018.88 1018.79 1018.68 1018.56 1018.41 1018.23 1018.02 1017.79 1017.52 1017.25 1016.96 1016.68 1016.41 1016.15 1015.93 1015.72 1015.55 1015.40 1015.29 1015.20 1015.15 1015.14 1015.18 1015.27 1015.40 1015.58 1015.78 1016.00 1016.20
1017.89 1018.15 1018.37 1018.55 1018.69 1018.80 1018.86 1018.89 1018.89 1018.86 1018.81 1018.74 1018.67 1018.60 1018.51 1018.42 1018.33 1018.21 1018.08 1017.92 1017.74 1017.53 1017.30 1017.05 1016.79 1016.52 1016.24 1015.98 1015.72 1015.47 1015.24 1015.02 1014.83 1014.67 1014.54 1014.47 1014.45 1014.48 1014.58 1014.73 1014.92 1015.13 1015.35
1017.52 1017.80 1018.02 1018.20 1018.32 1018.41 1018.46 1018.47 1018.46 1018.42 1018.37 1018.31 1018.24 1018.17 1018.10 1018.02 1017.93 1017.83 1017.72 1017.58 1017.43 1017.25 1017.06 1016.84 1016.61 1016.36 1016.09 1015.82 1015.54 1015.26 1014.98 1014.70 1014.44 1014.21 1014.00 1013.85 1013.74 1013.71 1013.74 1013.83 1013.98 1014.18 1014.40
1017.00 1017.29 1017.52 1017.70 1017.82 1017.91 1017.95 1017.96 1017.94 1017.91 1017.86 1017.81 1017.74 1017.68 1017.62 1017.55 1017.47 1017.39 1017.29 1017.18 1017.06 1016.92 1016.76 1016.58 1016.38 1016.16 1015.91 1015.65 1015.37 1015.07 1014.77 1014.45 1014.14 1013.84 1013.56 1013.33 1013.14 1013.01 1012.96 1012.98 1013.07 1013.23 1013.43
1016.36 1016.65 1016.89 1017.08 1017.21 1017.30 1017.35 1017.36 1017.35 1017.32 1017.28 1017.23 1017.18 1017.12 1017.06 1016.99 1016.93 1016.86 1016.78 1016.70 1016.60 1016.49 1016.36 1016.22 1016.05 1015.86 1015.64 1015.40 1015.14 1014.85 1014.54 1014.22 1013.88 1013.55 1013.22 1012.92 1012.66 1012.45 1012.31 1012.25 1012.26 1012.36 1012.52
1015.64 1015.94 1016.19 1016.39 1016.54 1016.64 1016.70 1016.72 1016.72 1016.69 1016.65 1016.60 1016.54 1016.48 1016.42 1016.36 1016.29 1016.23 1016.16 1016.09 1016.01 1015.93 1015.82 1015.71 1015.57 1015.41 1015.22 1015.02 1014.78 1014.52 1014.24 1013.94 1013.62 1013.28 1012.94 1012.61 1012.30 1012.03 1011.81 1011.66 1011.60 1011.62 1011.72
1014.93 1015.24 1015.50 1015.71 1015.87 1015.98 1016.05 1016.08 1016.08 1016.05 1016.00 1015.94 1015.86 1015.79 1015.71 1015.64 1015.57 1015.50 1015.44 1015.38 1015.31 1015.23 1015.14 1015.04 1014.92 1014.78 1014.62 1014.45 1014.26 1014.04 1013.81 1013.56 1013.28 1012.98 1012.66 1012.34 1012.01 1011.70 1011.43 1011.22 1011.07 1011.01 1011.04
1014.31 1014.61 1014.87 1015.09 1015.26 1015.38 1015.45 1015.48 1015.46 1015.42 1015.34 1015.25 1015.16 1015.05 1014.95 1014.86 1014.78 1014.70 1014.64 1014.57 1014.50 1014.43 1014.34 1014.24 1014.13 1014.00 1013.86 1013.71 1013.55 1013.39 1013.22 1013.03 1012.82 1012.59 1012.33 1012.04 1011.73 1011.42 1011.12 1010.85 1010.64 1010.50 1010.45
Thickness
5739 5737 5734 5732 5732 5731 5729 5727 5727 5726 5726 5726 5727 5727 5727 5728 5729 5729 5730 5726 5724 5724 5723 5721 5720 5719 5718 5717 5717 5716 5716 5716 5716 5716 5716 5716 5715 5715 5714 5713 5712 5711 5711
5737 5734 5732 5730 5730 5729 5727 5725 5725 5724 5725 5725 5725 5725 5725 5726 5725 5725 5727 5726 5724 5723 5721 5720 5719 5717 5716 5716 5715 5714 5714 5715 5715 5715 5714 5714 5714 5713 5713 5712 5712 5711 5710
5734 5732 5731 5729 5728 5727 5725 5723 5723 5723 5723 5724 5724 5724 5724 5723 5724 5723 5724 5724 5725 5723 5721 5720 5718 5716 5715 5714 5713 5713 5712 5713 5712 5713 5713 5712 5712 5712 5712 5711 5711 5710 5709
5731 5729 5729 5727 5724 5724 5723 5722 5722 5722 5721 5722 5723 5723 5723 5722 5722 5721 5722 5722 5722 5723 5722 5719 5717 5716 5714 5713 5712 5711 5711 5711 5710 5710 5710 5710 5710 5710 5710 5710 5710 5709 5708
5729 5728 5726 5723 5723 5723 5722 5722 5721 5720 5719 5719 5721 5721 5722 5722 5721 5721 5721 5721 5721 5720 5720 5719 5717 5715 5713 5712 5712 5711 5710 5709 5709 5709 5709 5708 5708 5708 5709 5709 5708 5708 5708
5727 5726 5724 5720 5721 5721 5719 5717 5715 5715 5715 5715 5719 5720 5719 5721 5720 5720 5719 5719 5718 5718 5718 5718 5716 5715 5713 5712 5711 5710 5709 5709 5708 5707 5707 5707 5707 5707 5707 5707 5707 5707 5706
5725 5723 5724 5719 5719 5719 5716 5716 5715 5714 5714 5714 5714 5716 5719 5720 5718 5717 5717 5717 5717 5715 5715 5714 5714 5715 5714 5712 5711 5709 5709 5708 5707 5707 5706 5706 5705 5705 5705 5706 5705 5705 5705
5723 5723 5720 5721 5719 5716 5714 5712 5710 5711 5712 5711 5709 5709 5711 5714 5712 5716 5713 5713 5712 5712 5713 5712 5710 5710 5711 5711 5711 5709 5708 5706 5706 5706 5705 5704 5704 5703 5703 5703 5704 5704 5704
5723 5721 5719 5719 5716 5716 5714 5710 5708 5707 5708 5708 5708 5705 5703 5704 5706 5711 5708 5708 5706 5707 5709 5708 5708 5707 5707 5708 5708 5707 5706 5705 5704 5704 5703 5703 5702 5702 5701 5702 5702 5703 5703
5722 5720 5718 5716 5715 5715 5711 5711 5709 5707 5703 5705 5705 5702 5700 5698 5695 5700 5704 5705 5703 5701 5702 5704 5704 5703 5703 5704 5703 5702 5701 5701 5702 5702 5702 5702 5701 5700 5700 5700 5701 5702 5702
5720 5719 5716 5715 5713 5712 5710 5707 5705 5704 5703 5701 5701 5699 5697 5694 5693 5690 5691 5694 5698 5700 5699 5698 5698 5699 5698 5698 5697 5697 5696 5696 5697 5698 5699 5700 5699 5699 5699 5699 5699 5700 5700
5721 5718 5715 5713 5711 5711 5707 5705 5702 5701 5699 5696 5695 5695 5693 5691 5689 5688 5685 5686 5688 5692 5693 5693 5693 5693 5693 5693 5692 5690 5689 5690 5691 5693 5694 5695 5696 5697 5697 5697 5698 5698 5699
5721 5716 5715 5711 5710 5707 5704 5702 5699 5698 5696 5692 5690 5691 5690 5689 5686 5684 5682 5682 5681 5685 5686 5688 5689 5687 5687 5687 5685 5682 5683 5683 5684 5686 5688 5690 5691 5692 5694 5695 5695 5696 5697
5721 5716 5712 5709 5707 5704 5702 5699 5699 5696 5693 5689 5688 5685 5684 5685 5683 5680 5677 5675 5674 5678 5680 5680 5682 5681 5680 5678 5677 5675 5678 5677 5678 5679 5680 5683 5684 5686 5688 5690 5691 5693 5694
5718 5713 5710 5707 5704 5701 5699 5696 5696 5692 5689 5687 5687 5683 5680 5681 5678 5677 5674 5671 5667 5666 5669 5672 5672 5674 5671 5670 5669 5668 5670 5671 5671 5672 5673 5675 5677 5680 5682 5684 5686 5688 5689
5714 5711 5708 5705 5702 5699 5696 5693 5692 5689 5686 5684 5681 5678 5675 5677 5675 5672 5670 5668 5665 5662 5661 5665 5664 5667 5664 5662 5663 5662 5663 5663 5664 5666 5667 5668 5670 5673 5675 5677 5679 5681 5684
5711 5708 5705 5703 5700 5697 5694 5691 5690 5686 5683 5681 5678 5675 5672 5669 5669 5668 5666 5664 5661 5659 5655 5658 5660 5660 5656 5654 5655 5656 5657 5659 5663 5662 5662 5662 5663 5665 5667 5670 5672 5675 5677
5709 5706 5703 5700 5698 5695 5692 5688 5685 5683 5680 5677 5675 5672 5669 5667 5663 5661 5660 5658 5656 5653 5650 5649 5651 5652 5650 5649 5648 5648 5651 5655 5656 5658 5656 5656 5657 5659 5661 5663 5665 5668 5670
5707 5704 5700 5697 5695 5692 5689 5686 5683 5680 5678 5675 5672 5668 5665 5662 5658 5658 5653 5653 5652 5651 5647 5645 5646 5646 5645 5645 5643 5644 5646 5646 5648 5652 5651 5651 5652 5653 5654 5656 5658 5661 5664
5704 5701 5698 5695 5692 5689 5687 5684 5680 5677 5674 5672 5669 5665 5662 5659 5655 5652 5649 5646 5645 5643 5642 5640 5640 5641 5640 5640 5637 5637 5640 5643 5643 5646 5648 5648 5647 5647 5648 5650 5652 5654 5657
5703 5699 5695 5692 5689 5687 5685 5682 5677 5674 5671 5667 5665 5662 5660 5656 5652 5647 5645 5644 5641 5638 5637 5636 5635 5635 5634 5632 5631 5632 5632 5633 5636 5638 5640 5642 5644 5646 5647 5646 5647 5649 5651
5699 5696 5692 5689 5687 5686 5682 5674 5670 5669 5667 5664 5661 5659 5657 5652 5647 5641 5636 5633 5630 5629 5630 5627 5628 5627 5625 5625 5624 5622 5623 5624 5626 5632 5631 5633 5637 5639 5642 5643 5646 5646 5645
5696 5691 5688 5686 5683 5681 5675 5669 5663 5662 5662 5660 5658 5655 5654 5654 5647 5643 5637 5629 5625 5621 5618 5618 5620 5619 5619 5618 5615 5614 5614 5614 5615 5620 5620 5623 5628 5630 5634 5639 5638 5638 5638
5693 5689 5685 5683 5680 5677 5671 5665 5660 5656 5657 5657 5654 5652 5649 5646 5644 5639 5635 5632 5629 5626 5620 5613 5613 5613 5613 5610 5608 5606 5605 5607 5609 5611 5612 5612 5619 5622 5628 5632 5632 5632 5631
5688 5685 5682 5679 5675 5672 5666 5660 5653 5654 5655 5654 5652 5650 5647 5643 5639 5631 5626 5624 5623 5622 5619 5615 5611 5608 5605 5601 5598 5597 5599 5601 5605 5609 5610 5608 5612 5615 5620 5624 5626 5626 5626
5683 5680 5678 5675 5671 5668 5663 5655 5647 5649 5651 5651 5650 5647 5642 5638 5634 5626 5621 5620 5618 5617 5615 5614 5607 5603 5600 5598 5594 5590 5593 5595 5599 5602 5605 5602 5604 5606 5609 5617 5620 5622 5621